Language: 


Des rapports , des résumés tant et plus, au choix de chacun....


Données statistiques de la station
Quotidien Rapport Aout 12, 2017 Unités:  Anglais    Métrique   les deux
« Précédent Jour
Suivant Jour »
Quotidien Hebdomadaire Mensuel Annuel Actuel
  Haut: Bas: Moyen:
Température: 71.6 °F 32 °F 63.9 °F
Pt de rosée: 68 °F 55.4 °F 61.3 °F
Humidité: 98 % 0 % 91 %
Vitesse du vent: 18.6 mph 0 mph 5.5 mph
Rafales: 18.6 mph - -
Vent:- - WSW
Pression: 30.1 in 0 in -
Précipitation: 0.09 in    
Historical Graphs
 
 
Données statistiques pour Aout 12, 2017
Heure Température Point de rosée Pression Vent Vitesse du vent Refales Humidité Pluie (taux horaire)
00:03 56.7 °F 55.4 °F 30 in WSW 4.3 mph 7.8 mph 91 % 0 in
00:08 56.7 °F 55.4 °F 30 in West 4.5 mph 7.6 mph 92 % 0 in
00:13 56.7 °F 55.4 °F 30 in WSW 5.6 mph 6.5 mph 92 % 0 in
00:18 56.7 °F 55.4 °F 30 in WSW 4.7 mph 6.5 mph 92 % 0 in
00:23 56.5 °F 55.4 °F 30 in WSW 5.6 mph 6 mph 92 % 0 in
00:28 56.5 °F 55.4 °F 30 in WSW 4.9 mph 6 mph 93 % 0 in
00:34 56.5 °F 55.4 °F 30 in WSW 4.7 mph 6 mph 93 % 0 in
00:39 56.5 °F 55.4 °F 30 in SW 4 mph 6.3 mph 93 % 0 in
00:44 56.7 °F 55.4 °F 30 in Calm   6.3 mph 93 % 0 in
00:49 56.7 °F 55.4 °F 30 in WSW 0.9 mph 6 mph 93 % 0 in
00:54 56.8 °F 55.4 °F 30 in Calm   4.3 mph 94 % 0 in
00:59 57.2 °F 55.4 °F 30 in Calm   3.4 mph 94 % 0 in
01:04 57.4 °F 55.4 °F 30 in Calm   4 mph 94 % 0 in
01:09 57.6 °F 55.4 °F 30 in SW 3.6 mph 4 mph 94 % 0 in
01:14 57.7 °F 55.4 °F 30 in WSW 2.9 mph 4 mph 94 % 0 in
01:19 57.9 °F 55.4 °F 30 in Calm   5.8 mph 94 % 0 in
01:24 58.1 °F 57.2 °F 30 in Calm   5.8 mph 94 % 0 in
01:29 58.3 °F 57.2 °F 30 in WSW 4 mph 4.3 mph 94 % 0 in
01:34 58.5 °F 57.2 °F 30 in WSW 3.4 mph 4.3 mph 94 % 0 in
01:39 58.6 °F 57.2 °F 30 in West 2.9 mph 5.4 mph 94 % 0 in
01:44 58.8 °F 57.2 °F 30 in SSW 4.3 mph 5.8 mph 95 % 0 in
01:49 58.8 °F 57.2 °F 30 in WSW 2.9 mph 5.8 mph 94 % 0 in
01:54 59 °F 57.2 °F 30 in Calm   6 mph 94 % 0 in
02:00 59 °F 57.2 °F 30 in SW 3.6 mph 6 mph 94 % 0 in
02:05 59.2 °F 57.2 °F 30 in Calm   4.5 mph 94 % 0 in
02:10 59.4 °F 57.2 °F 30 in SSW 2.9 mph 4.5 mph 94 % 0 in
02:15 59.5 °F 59 °F 30 in WSW 2.9 mph 5.8 mph 95 % 0 in
02:20 59.7 °F 59 °F 30 in SW 4 mph 6.3 mph 95 % 0 in
02:25 59.9 °F 59 °F 30 in WSW 3.6 mph 6.3 mph 95 % 0 in
02:30 60.1 °F 59 °F 30 in WSW 3.4 mph 6 mph 95 % 0 in
02:35 60.1 °F 59 °F 30 in SW 3.1 mph 6.3 mph 95 % 0 in
02:40 60.4 °F 59 °F 30 in SSW 6 mph 7.2 mph 95 % 0 in
02:45 60.4 °F 59 °F 30 in WSW 5.8 mph 7.2 mph 95 % 0 in
02:50 60.6 °F 59 °F 30 in WSW 3.6 mph 6.5 mph 95 % 0 in
02:55 60.8 °F 59 °F 30 in WSW 2.7 mph 6.5 mph 94 % 0 in
03:02 32 °F 59 °F 30 in SW 4.9 mph 5.8 mph 0 % 0 in
03:07 61 °F 59 °F 30 in WSW 3.4 mph 5.8 mph 94 % 0 in
03:12 61 °F 59 °F 30 in SW 3.1 mph 6 mph 94 % 0 in
03:17 61 °F 59 °F 30 in WSW 5.6 mph 6.3 mph 94 % 0 in
03:22 61.2 °F 59 °F 30 in WSW 5.4 mph 8.5 mph 94 % 0 in
03:27 61.2 °F 59 °F 30 in WSW 2.9 mph 8.5 mph 94 % 0 in
03:32 61.3 °F 59 °F 30 in WSW 2.2 mph 6.3 mph 94 % 0 in
03:37 61.5 °F 59 °F 30 in WSW 3.8 mph 7.6 mph 93 % 0 in
03:42 61.5 °F 59 °F 30 in SW 7.4 mph 8.1 mph 93 % 0 in
03:47 61.5 °F 59 °F 30 in WSW 0.9 mph 8.1 mph 93 % 0 in
03:52 61.7 °F 60.8 °F 30 in SW 2.9 mph 6.3 mph 93 % 0 in
03:57 61.5 °F 59 °F 30 in WSW 3.8 mph 7.4 mph 93 % 0 in
04:02 61.5 °F 59 °F 30 in WSW 3.6 mph 7.4 mph 93 % 0 in
04:07 61.3 °F 59 °F 30 in SW 4.9 mph 5.4 mph 93 % 0 in
04:12 61.3 °F 59 °F 30 in SW 2.5 mph 5.8 mph 94 % 0 in
04:17 61.3 °F 59 °F 30 in WSW 4.9 mph 6 mph 94 % 0 in
04:23 61.3 °F 59 °F 30 in WSW 3.6 mph 6 mph 94 % 0 in
04:28 61.3 °F 59 °F 30 in WSW 4.7 mph 6 mph 94 % 0 in
04:33 61.3 °F 59 °F 30 in WSW 5.4 mph 6 mph 94 % 0 in
04:38 61.3 °F 59 °F 30 in WSW 3.1 mph 6.5 mph 94 % 0 in
04:43 61.5 °F 60.8 °F 30 in SW 4.7 mph 6.5 mph 95 % 0 in
04:48 61.5 °F 60.8 °F 30 in WSW 5.8 mph 7.4 mph 95 % 0 in
04:53 61.5 °F 60.8 °F 30 in SW 4 mph 7.6 mph 95 % 0 in
04:58 61.5 °F 60.8 °F 30 in SSW 0.9 mph 7.6 mph 95 % 0 in
05:03 61.3 °F 60.8 °F 30 in WSW 3.8 mph 7.2 mph 96 % 0 in
05:08 61.3 °F 60.8 °F 30 in SW 5.8 mph 6.3 mph 95 % 0 in
05:13 61.3 °F 60.8 °F 30 in SSW 2.5 mph 7.4 mph 96 % 0 in
05:18 61.2 °F 60.8 °F 30 in SW 5.6 mph 7.4 mph 96 % 0 in
05:23 61.2 °F 60.8 °F 29.9 in SW 3.4 mph 7.2 mph 96 % 0 in
05:28 61.2 °F 60.8 °F 29.9 in Calm   7.2 mph 96 % 0 in
05:33 61.2 °F 60.8 °F 29.9 in Calm   7.2 mph 96 % 0 in
05:38 61.2 °F 60.8 °F 30 in SW 5.4 mph 8.1 mph 96 % 0 in
05:43 61.2 °F 60.8 °F 30 in West 3.8 mph 8.1 mph 96 % 0 in
05:48 61.2 °F 60.8 °F 30 in SSW 4.3 mph 6.5 mph 96 % 0 in
05:53 61.2 °F 60.8 °F 30 in Calm   7.4 mph 96 % 0 in
05:58 61.2 °F 60.8 °F 30 in WSW 3.4 mph 7.4 mph 96 % 0 in
06:03 61.2 °F 60.8 °F 30 in SSW 0.9 mph 5.8 mph 97 % 0 in
06:08 61.2 °F 60.8 °F 29.9 in Calm   5.6 mph 97 % 0 in
06:13 61.2 °F 60.8 °F 29.9 in Calm   5.6 mph 97 % 0 in
06:18 61.2 °F 60.8 °F 29.9 in WSW 2 mph 5.6 mph 97 % 0 in
06:24 61.3 °F 60.8 °F 29.9 in SSW 3.1 mph 6.3 mph 97 % 0 in
06:29 61.3 °F 60.8 °F 29.9 in Calm   6.3 mph 97 % 0 in
06:34 61.3 °F 60.8 °F 29.9 in Calm   6 mph 97 % 0 in
06:39 61.3 °F 60.8 °F 29.9 in Calm   6.5 mph 97 % 0 in
06:44 61.3 °F 60.8 °F 29.9 in Calm   6.5 mph 97 % 0 in
06:49 61.5 °F 60.8 °F 29.9 in SSW 4 mph 6 mph 97 % 0 in
06:54 61.5 °F 60.8 °F 29.9 in Calm   6 mph 97 % 0 in
06:59 61.5 °F 60.8 °F 29.9 in SSW 1.3 mph 6.7 mph 97 % 0 in
07:04 61.5 °F 60.8 °F 29.9 in SW 2.9 mph 6.7 mph 97 % 0 in
07:09 61.5 °F 60.8 °F 30 in South 4.3 mph 6.3 mph 97 % 0 in
07:14 61.3 °F 60.8 °F 30 in South 2.7 mph 4.3 mph 97 % 0 in
07:19 61.2 °F 60.8 °F 30 in South 1.3 mph 5.6 mph 97 % 0 in
07:24 61.2 °F 60.8 °F 29.9 in Calm   5.8 mph 97 % 0 in
07:29 61.2 °F 60.8 °F 29.9 in SW 4.3 mph 6.5 mph 97 % 0 in
07:34 61.2 °F 60.8 °F 29.9 in SSW 3.8 mph 6.5 mph 97 % 0 in
07:39 61.2 °F 60.8 °F 29.9 in SW 5.4 mph 6 mph 97 % 0 in
07:44 61 °F 60.8 °F 29.9 in SSW 4.5 mph 7.2 mph 97 % 0 in
07:49 61.2 °F 60.8 °F 29.9 in SSW 6.3 mph 7.2 mph 97 % 0 in
07:54 61.2 °F 60.8 °F 29.9 in SSW 4.3 mph 7.8 mph 97 % 0 in
07:59 61.2 °F 60.8 °F 29.9 in SW 6 mph 7.8 mph 97 % 0.01 in
08:04 61.2 °F 60.8 °F 29.9 in SSW 2.2 mph 6.5 mph 97 % 0.01 in
08:09 61.3 °F 60.8 °F 29.9 in SW 4.7 mph 6.5 mph 98 % 0.01 in
08:11 61.3 °F 60.8 °F 29.9 in SW 1.1 mph 6.5 mph 98 % 0.01 in
08:16 61.5 °F 60.8 °F 29.9 in SW 3.6 mph 6.5 mph 98 % 0.02 in
08:21 61.3 °F 60.8 °F 29.9 in SW 6.5 mph 6.7 mph 98 % 0.03 in
08:26 61.3 °F 60.8 °F 29.9 in Calm   6.7 mph 97 % 0.03 in
08:31 61.3 °F 60.8 °F 29.9 in South 3.4 mph 6.5 mph 97 % 0.03 in
08:36 61.3 °F 60.8 °F 29.9 in SW 2.7 mph 6 mph 97 % 0.03 in
08:41 61.7 °F 60.8 °F 29.9 in Calm   8.1 mph 97 % 0.04 in
08:46 61.9 °F 62.6 °F 29.9 in SSW 3.8 mph 8.1 mph 98 % 0.04 in
08:51 61.9 °F 62.6 °F 29.9 in SW 4 mph 6.5 mph 98 % 0.04 in
08:56 62.1 °F 62.6 °F 30 in SSW 6.3 mph 6.3 mph 98 % 0.03 in
09:01 62.2 °F 62.6 °F 30 in SSW 4.9 mph 6.5 mph 98 % 0.05 in
09:06 62.2 °F 62.6 °F 30 in SSW 3.4 mph 6.9 mph 98 % 0.05 in
09:11 62.4 °F 62.6 °F 30 in South 4 mph 7.2 mph 98 % 0.05 in
09:16 62.6 °F 62.6 °F 30 in SSW 5.4 mph 7.2 mph 97 % 0.04 in
09:21 62.8 °F 62.6 °F 30 in WSW 6 mph 7.6 mph 97 % 0.02 in
09:26 63.1 °F 62.6 °F 29.9 in SSE 4.3 mph 7.6 mph 97 % 0.03 in
09:31 63.5 °F 62.6 °F 0 in SSW 3.4 mph 6.3 mph 97 % 0.03 in
09:36 63.5 °F 62.6 °F 29.9 in SSW 3.8 mph 6.9 mph 97 % 0.03 in
09:41 63.5 °F 62.6 °F 29.9 in WSW 4 mph 6.9 mph 97 % 0.01 in
09:47 63.7 °F 62.6 °F 29.9 in SSW 5.4 mph 7.4 mph 97 % 0.01 in
09:52 63.9 °F 62.6 °F 29.9 in SSW 4.3 mph 7.4 mph 97 % 0.01 in
09:57 63.9 °F 62.6 °F 29.9 in WSW 1.1 mph 7.8 mph 97 % 0.01 in
10:02 64 °F 62.6 °F 29.9 in WSW 5.4 mph 7.8 mph 97 % 0 in
10:07 64 °F 62.6 °F 29.9 in SSW 4.3 mph 8.1 mph 97 % 0 in
10:12 64.2 °F 64.4 °F 30 in WSW 6 mph 8.1 mph 97 % 0 in
10:17 64 °F 62.6 °F 30 in West 9.6 mph 10.5 mph 97 % 0 in
10:22 63.9 °F 62.6 °F 30 in WSW 8.5 mph 14.3 mph 97 % 0.01 in
10:27 63.9 °F 62.6 °F 30 in West 4.9 mph 14.3 mph 97 % 0.01 in
10:32 64 °F 62.6 °F 30 in West 4 mph 10.1 mph 97 % 0.01 in
10:37 63.9 °F 62.6 °F 30 in West 7.8 mph 8.7 mph 97 % 0.01 in
10:42 63.9 °F 62.6 °F 30 in West 7.8 mph 8.7 mph 97 % 0.01 in
10:47 64.2 °F 64.4 °F 30 in WSW 7.4 mph 8.7 mph 97 % 0.01 in
10:52 64.2 °F 64.4 °F 30 in West 10.1 mph 10.1 mph 97 % 0.01 in
10:57 64 °F 62.6 °F 30 in West 10.3 mph 10.3 mph 97 % 0.01 in
11:02 64.2 °F 64.4 °F 30 in West 6.5 mph 12.5 mph 97 % 0.01 in
11:07 64.9 °F 64.4 °F 30 in West 4.9 mph 12.5 mph 97 % 0.01 in
11:12 65.3 °F 64.4 °F 30 in West 7.4 mph 9.6 mph 97 % 0.01 in
11:17 65.5 °F 64.4 °F 30 in West 8.1 mph 10.7 mph 96 % 0.01 in
11:22 65.7 °F 64.4 °F 30 in West 5.8 mph 10.7 mph 96 % 0 in
11:27 65.8 °F 64.4 °F 30 in West 8.1 mph 10.1 mph 96 % 0 in
11:32 66.2 °F 66.2 °F 30 in SW 6.3 mph 9.8 mph 96 % 0 in
11:37 66.2 °F 66.2 °F 30 in West 7.4 mph 8.7 mph 96 % 0 in
11:42 66.2 °F 64.4 °F 30 in West 5.4 mph 8.7 mph 95 % 0 in
11:47 66.4 °F 64.4 °F 30 in WSW 6.5 mph 8.7 mph 95 % 0 in
11:52 66.2 °F 64.4 °F 30 in West 6.3 mph 8.7 mph 95 % 0 in
11:57 66.4 °F 64.4 °F 30 in West 4.3 mph 8.5 mph 95 % 0 in
12:02 66.4 °F 64.4 °F 30 in WSW 8.5 mph 9.2 mph 95 % 0 in
12:07 66.6 °F 66.2 °F 30 in WSW 6.3 mph 10.1 mph 95 % 0 in
12:12 67.8 °F 66.2 °F 30 in WSW 9.2 mph 10.7 mph 95 % 0 in
12:17 68.5 °F 66.2 °F 30 in West 6.5 mph 10.7 mph 94 % 0 in
12:23 68.5 °F 66.2 °F 30 in WSW 7.6 mph 12.1 mph 93 % 0 in
12:28 68.2 °F 66.2 °F 30 in West 5.8 mph 12.1 mph 92 % 0 in
12:33 67.6 °F 64.4 °F 30 in SW 5.4 mph 11 mph 92 % 0 in
12:38 67.3 °F 64.4 °F 30 in West 8.1 mph 11 mph 92 % 0 in
12:43 66.6 °F 64.4 °F 30 in West 8.1 mph 10.5 mph 92 % 0 in
12:48 67.5 °F 66.2 °F 30 in West 5.4 mph 9.4 mph 94 % 0 in
12:53 67.8 °F 66.2 °F 30 in WSW 5.4 mph 8.5 mph 94 % 0 in
12:58 68 °F 66.2 °F 30 in West 7.8 mph 10.3 mph 93 % 0 in
13:03 68.5 °F 66.2 °F 30 in WSW 10.7 mph 13.2 mph 91 % 0 in
13:08 69.4 °F 66.2 °F 30 in WSW 8.1 mph 13.2 mph 90 % 0 in
13:13 69.3 °F 66.2 °F 30 in WSW 8.5 mph 13 mph 89 % 0 in
13:18 68.9 °F 66.2 °F 30 in West 8.1 mph 14.5 mph 88 % 0 in
13:23 68.9 °F 66.2 °F 29.9 in West 10.7 mph 14.5 mph 87 % 0 in
13:28 68.9 °F 66.2 °F 29.9 in West 9.6 mph 11.9 mph 87 % 0 in
13:33 70.5 °F 66.2 °F 29.9 in West 10.3 mph 11 mph 87 % 0 in
13:38 71.6 °F 68 °F 30 in SW 8.1 mph 11.4 mph 86 % 0 in
13:43 71.2 °F 66.2 °F 30 in WSW 8.9 mph 14.3 mph 82 % 0 in
13:48 70.5 °F 64.4 °F 30 in West 7.4 mph 16.8 mph 79 % 0 in
13:53 70 °F 64.4 °F 30 in West 6.5 mph 16.8 mph 80 % 0.01 in
13:57 69.8 °F 64.4 °F 30 in WSW 18.6 mph 18.6 mph 81 % 0.03 in
14:02 69.4 °F 64.4 °F 30 in WSW 12.1 mph 18.6 mph 82 % 0.03 in
14:07 69.6 °F 64.4 °F 30 in West 8.5 mph 18.6 mph 81 % 0.03 in
14:12 69.8 °F 64.4 °F 30 in West 10.1 mph 15.2 mph 81 % 0.03 in
14:17 70 °F 64.4 °F 30 in SW 6.5 mph 14.5 mph 82 % 0.03 in
14:22 70 °F 64.4 °F 30 in West 10.3 mph 12.1 mph 82 % 0.03 in
14:27 69.8 °F 64.4 °F 30 in West 10.7 mph 12.5 mph 82 % 0.02 in
14:37 69.4 °F 62.6 °F 30 in WSW 13.2 mph 13.2 mph 81 % 0.02 in
14:42 69.6 °F 64.4 °F 30 in West 10.5 mph 13.2 mph 81 % 0.02 in
14:47 69.3 °F 62.6 °F 30 in WSW 10.1 mph 13.2 mph 81 % 0.02 in
14:52 68.9 °F 62.6 °F 30 in WSW 11 mph 13.2 mph 81 % 0.01 in
14:57 68.5 °F 62.6 °F 30 in West 7.8 mph 12.8 mph 82 % 0 in
15:02 68.4 °F 62.6 °F 30 in WSW 9.2 mph 10.7 mph 82 % 0 in
15:08 68.2 °F 62.6 °F 30 in WSW 7.8 mph 11 mph 84 % 0 in
15:13 67.8 °F 64.4 °F 30 in WSW 9.8 mph 11 mph 85 % 0 in
15:18 67.3 °F 64.4 °F 30 in WSW 7.8 mph 11 mph 87 % 0 in
15:23 67.1 °F 64.4 °F 30 in WSW 6 mph 11 mph 88 % 0 in
15:28 67.1 °F 64.4 °F 30 in SW 6.3 mph 8.7 mph 89 % 0 in
15:33 67.3 °F 64.4 °F 30 in WSW 5.8 mph 8.1 mph 90 % 0 in
15:38 66.9 °F 64.4 °F 30 in West 8.1 mph 12.5 mph 91 % 0 in
15:43 66.6 °F 64.4 °F 30 in West 7.4 mph 12.5 mph 92 % 0 in
15:48 66.6 °F 64.4 °F 30 in WSW 7.2 mph 12.3 mph 92 % 0 in
15:54 66.6 °F 64.4 °F 30 in West 6 mph 9.6 mph 93 % 0 in
15:59 66.4 °F 64.4 °F 30 in West 6 mph 11 mph 93 % 0 in
16:04 66.2 °F 64.4 °F 30 in WSW 8.7 mph 11 mph 94 % 0 in
16:09 65.8 °F 64.4 °F 30 in WSW 8.1 mph 12.5 mph 94 % 0 in
16:14 65.8 °F 64.4 °F 30 in WSW 6.5 mph 12.5 mph 95 % 0 in
16:19 66.6 °F 66.2 °F 30 in WSW 5.8 mph 8.7 mph 95 % 0 in
16:24 67.1 °F 66.2 °F 30 in WSW 6 mph 6.5 mph 95 % 0 in
16:29 67.1 °F 66.2 °F 30 in WSW 4.3 mph 8.9 mph 95 % 0 in
16:34 67.1 °F 66.2 °F 30 in WSW 4 mph 8.9 mph 95 % 0 in
16:39 66.9 °F 66.2 °F 30 in SW 6.3 mph 10.3 mph 95 % 0 in
16:44 66.9 °F 64.4 °F 30 in WSW 4.9 mph 10.5 mph 94 % 0 in
16:49 66.9 °F 64.4 °F 30 in West 5.8 mph 10.5 mph 94 % 0 in
16:54 66.7 °F 64.4 °F 30 in WSW 6.9 mph 10.5 mph 94 % 0 in
16:59 66.7 °F 64.4 °F 30 in West 7.4 mph 10.5 mph 94 % 0 in
17:04 66.7 °F 64.4 °F 30 in West 10.3 mph 10.3 mph 94 % 0 in
17:09 66.7 °F 64.4 °F 30 in WSW 6.5 mph 12.3 mph 94 % 0 in
17:14 66.9 °F 64.4 °F 30 in WSW 7.8 mph 12.3 mph 94 % 0 in
17:19 66.9 °F 64.4 °F 30 in WSW 7.6 mph 11 mph 94 % 0 in
17:24 67.3 °F 66.2 °F 30 in WSW 3.8 mph 13 mph 93 % 0 in
17:29 67.6 °F 66.2 °F 30 in WSW 7.2 mph 13 mph 93 % 0 in
17:34 67.8 °F 66.2 °F 30 in WSW 7.4 mph 11 mph 92 % 0 in
17:39 68 °F 66.2 °F 30 in SSW 7.4 mph 11 mph 91 % 0 in
17:44 68.2 °F 66.2 °F 30 in SSW 6.5 mph 9.8 mph 91 % 0 in
17:49 68.7 °F 66.2 °F 30 in WSW 6.3 mph 9.2 mph 91 % 0 in
17:54 69.6 °F 66.2 °F 30 in SSW 7.8 mph 11 mph 90 % 0 in
18:00 69.1 °F 66.2 °F 30 in WSW 10.3 mph 11 mph 88 % 0 in
18:05 68.9 °F 64.4 °F 30 in WSW 7.2 mph 12.5 mph 86 % 0 in
18:06 68.9 °F 64.4 °F 30 in WSW 8.5 mph 12.5 mph 86 % 0 in
18:12 70.2 °F 66.2 °F 30 in WSW 6 mph 12.5 mph 86 % 0 in
18:17 71.2 °F 66.2 °F 30 in West 6 mph 11 mph 84 % 0 in
18:22 71.6 °F 66.2 °F 30 in WSW 9.8 mph 12.5 mph 81 % 0 in
18:27 70.7 °F 64.4 °F 30 in West 8.1 mph 12.5 mph 79 % 0 in
18:32 70.2 °F 64.4 °F 30 in West 8.7 mph 10.5 mph 81 % 0 in
18:37 69.4 °F 62.6 °F 30 in WSW 7.8 mph 10.5 mph 79 % 0 in
18:42 69.4 °F 62.6 °F 30 in West 7.8 mph 10.5 mph 79 % 0 in
18:47 69.6 °F 62.6 °F 30 in West 7.4 mph 13.2 mph 79 % 0 in
18:52 69.8 °F 62.6 °F 30 in WSW 5.6 mph 13.2 mph 79 % 0 in
18:57 70.2 °F 62.6 °F 30 in West 10.1 mph 11 mph 78 % 0 in
19:02 70 °F 62.6 °F 30 in West 10.7 mph 13 mph 76 % 0 in
19:07 69.8 °F 62.6 °F 30 in West 10.3 mph 13 mph 75 % 0 in
19:12 69.6 °F 62.6 °F 30 in WSW 6 mph 13 mph 75 % 0 in
19:17 69.3 °F 60.8 °F 30 in West 8.7 mph 13 mph 76 % 0 in
19:22 69.1 °F 62.6 °F 30 in WSW 8.5 mph 12.5 mph 77 % 0 in
19:28 69.4 °F 62.6 °F 30 in WSW 10.3 mph 12.8 mph 77 % 0 in
19:33 68.9 °F 60.8 °F 30 in West 12.8 mph 13.4 mph 75 % 0 in
19:38 68.5 °F 60.8 °F 30 in West 9.2 mph 13.6 mph 74 % 0 in
19:43 68.7 °F 60.8 °F 30 in West 8.1 mph 15.4 mph 75 % 0 in
19:48 68.7 °F 59 °F 30 in West 11 mph 15.7 mph 73 % 0 in
19:53 68.4 °F 59 °F 30 in WSW 11 mph 15.9 mph 73 % 0 in
19:58 67.8 °F 59 °F 30 in West 11 mph 15.9 mph 74 % 0 in
20:03 67.8 °F 59 °F 30 in West 6.5 mph 12.8 mph 74 % 0 in
20:08 67.6 °F 59 °F 30 in West 10.7 mph 13.2 mph 75 % 0 in
20:13 67.3 °F 59 °F 30 in West 6.3 mph 13.2 mph 76 % 0 in
20:18 66.9 °F 59 °F 30 in WSW 6.3 mph 10.7 mph 77 % 0 in
20:23 66.7 °F 59 °F 30 in WSW 7.8 mph 10.3 mph 78 % 0 in
20:28 66.4 °F 59 °F 30 in WSW 6 mph 11 mph 78 % 0 in
20:33 66 °F 60.8 °F 30 in WSW 4.3 mph 11 mph 80 % 0 in
20:38 65.7 °F 59 °F 30 in WSW 7.2 mph 8.7 mph 80 % 0 in
20:44 65.5 °F 59 °F 30 in West 8.7 mph 9.8 mph 81 % 0 in
20:49 65.1 °F 59 °F 30 in West 12.3 mph 14.5 mph 81 % 0 in
20:54 64.9 °F 59 °F 30 in West 11 mph 14.5 mph 81 % 0 in
20:59 64.6 °F 59 °F 30 in WSW 4.7 mph 12.3 mph 82 % 0 in
21:04 64.2 °F 59 °F 30 in West 8.5 mph 11 mph 83 % 0 in
21:09 63.9 °F 59 °F 30.1 in WSW 4.9 mph 8.5 mph 84 % 0 in
21:14 63.5 °F 59 °F 30.1 in West 7.2 mph 8.7 mph 85 % 0 in
21:19 63.3 °F 59 °F 30.1 in WSW 3.6 mph 8.7 mph 86 % 0 in
21:24 63.1 °F 59 °F 30 in SW 6 mph 7.8 mph 86 % 0 in
21:29 63 °F 59 °F 30 in WSW 3.8 mph 6.5 mph 87 % 0 in
21:34 63 °F 59 °F 30 in West 4.9 mph 6.5 mph 88 % 0 in
21:39 63 °F 59 °F 30 in WSW 3.8 mph 7.2 mph 88 % 0 in
21:44 63 °F 60.8 °F 30 in WSW 0.9 mph 7.2 mph 89 % 0 in
21:49 63 °F 60.8 °F 30 in WSW 6.3 mph 7.2 mph 89 % 0 in
21:54 63 °F 60.8 °F 30 in WSW 4.7 mph 6.5 mph 89 % 0 in
21:59 62.8 °F 59 °F 30 in WSW 2.9 mph 7.8 mph 88 % 0 in
22:04 62.6 °F 59 °F 30 in West 7.8 mph 7.8 mph 88 % 0 in
22:09 62.6 °F 59 °F 30 in WSW 6 mph 9.8 mph 87 % 0 in
22:14 62.4 °F 59 °F 30 in WSW 4.3 mph 9.8 mph 87 % 0 in
22:19 62.2 °F 59 °F 30 in WSW 5.6 mph 8.5 mph 87 % 0 in
22:24 62.1 °F 59 °F 30 in West 7.8 mph 8.7 mph 87 % 0 in
22:29 62.1 °F 59 °F 30 in West 6.5 mph 8.7 mph 87 % 0 in
22:34 61.9 °F 57.2 °F 30 in WSW 4 mph 8.7 mph 86 % 0 in
22:39 61.7 °F 57.2 °F 30 in West 5.6 mph 7.4 mph 86 % 0 in
22:44 61.3 °F 57.2 °F 30 in WSW 5.6 mph 7.4 mph 87 % 0 in
22:49 61 °F 57.2 °F 30 in Calm   6.3 mph 87 % 0 in
22:54 60.6 °F 57.2 °F 30 in WSW 3.8 mph 5.6 mph 87 % 0 in
22:59 60.3 °F 57.2 °F 30 in WSW 3.8 mph 5.6 mph 88 % 0 in
23:04 60.1 °F 57.2 °F 30 in WSW 4.3 mph 6.5 mph 89 % 0 in
23:09 60.1 °F 57.2 °F 30 in WSW 5.4 mph 6.5 mph 89 % 0 in
23:14 60.1 °F 57.2 °F 30 in SSW 5.6 mph 6.5 mph 89 % 0 in
23:19 59.9 °F 57.2 °F 30 in WSW 5.8 mph 6.9 mph 89 % 0 in
23:24 59.7 °F 57.2 °F 30.1 in WSW 4.7 mph 6.9 mph 90 % 0 in
23:30 59.5 °F 57.2 °F 30.1 in West 4.7 mph 6.5 mph 90 % 0 in
23:35 59.4 °F 57.2 °F 30.1 in West 5.8 mph 7.8 mph 90 % 0 in
23:40 59 °F 55.4 °F 30.1 in West 4.7 mph 7.8 mph 90 % 0 in
23:45 59 °F 57.2 °F 30.1 in WSW 5.4 mph 6.5 mph 91 % 0 in
23:50 58.8 °F 57.2 °F 30.1 in SW 4.9 mph 5.4 mph 91 % 0 in
23:55 58.5 °F 55.4 °F 30.1 in Calm   5.4 mph 91 % 0 in
Le Gheer Warneton
Courtoisie de Weather Underground - 2.25 mb

Mise a jour : 18/12/2017 21:30:12
Généré par Cumulus 1.9.4 (1099)